{"data":{"norad_id":82432,"intl_designator":"","name":"UNKNOWN","alt_names":[],"object_type":"UNKNOWN","status":"UNKNOWN","operator":null,"country":null,"launch_date":null,"launch_site_code":null,"launch_vehicle":null,"mission":null,"orbit_class":"UNKNOWN","rcs_meters":null,"size_class":null,"mass_kg":null,"dimensions":null,"purposes":[],"wikipedia_slug":null,"has_3d_model":false,"image_url":null,"decayed_at":null,"tle_current":{"epoch":"2026-05-22T02:53:21.830784Z","epoch_age_seconds":314112,"freshness":"STALE","line1":"1 82432U          26142.12039156  .00000902  00000+0  19373-3 0  9997","line2":"2 82432  74.0073  34.5209 0055910 160.3164 200.0178 14.59162160506291","mean_motion":14.5916216,"eccentricity":0.005591,"inclination_deg":74.0073,"raan_deg":34.5209,"arg_perigee_deg":160.3164,"mean_anomaly_deg":200.0178,"bstar":0.00019373,"rev_number":50629,"period_min":98.686769673358,"perigee_km":656.32975988222,"apogee_km":735.43142459865,"semimajor_km":7074.0175922404,"source":"CELESTRAK","updated_at":"2026-05-25T13:38:11.188761Z"}}}